Home > Time Zones > World Clock > Weather > Iran > Yazd > Past weeks

Flag for Iran Weather past 2 weeks in Yazd, Iran

Now
95 °F

Passing clouds.


Feels Like: 90 °F
Forecast: 65 / 97 °F
Wind: 9 mph from North

Location: Yazd Airport

Current Time: Aug 21, 2014 at 1:05:50 PM

Latest Report: Aug 21, 2014 at 12:30 PM


Visibility: N/A

Pressure: 30.01 "Hg

Humidity: 9%

Dew point: 28 °F

Location of YazdLocation

Historic Weather in Yazd — Graph

°F

Yazd temperature yesterday

Maximum temperature yesterday: 100 °F (at 2:30 PM)
Minimum temperature yesterday: 77 °F (at 7:00 AM)
Average temperature yesterday: 90 °F

Past Weeks' High & Low Weather Summary

 TemperatureHumidityPressure
High109 °F (Aug 6, 3:30 PM)42% (Aug 15, 7:30 AM)30.09 "Hg (Aug 15, 7:30 AM)
Low70 °F (Aug 18, 5:30 AM)3% (Aug 8, 1:00 PM)29.62 "Hg (Aug 6, 4:30 PM)
Average93 °F9%29.91 "Hg
* Reported Aug 6 11:30 AM — Aug 21 12:00 Noon, Yazd, Weather by CustomWeather, © 2014

Note: Actual official high and low records may vary slightly from our data, if they occured in-between our weather recording intervals... More about our weather records

Advertising

Yazd weather history for previous 24 hours

 ConditionsComfort  
Time TempWeatherWind HumidityBarometerVisibility
12:00 PM
Aug 21
95 °FPassing clouds.9 mph9%30.04 "HgN/A
11:30 AM91 °FPassing clouds.12 mph11%30.04 "HgN/A
11:00 AM91 °FPassing clouds.9 mph11%30.04 "HgN/A
10:30 AM90 °FSunny.7 mph13%30.07 "Hg10 mi
10:00 AM88 °FSunny.7 mph13%30.07 "Hg10 mi
9:30 AM86 °FSunny.7 mph13%30.07 "Hg10 mi
9:00 AM86 °FSunny.7 mph13%30.07 "Hg10 mi
8:30 AM84 °FSunny.5 mph14%30.07 "Hg10 mi
8:00 AM82 °FSunny.7 mph15%30.04 "Hg10 mi
7:30 AM79 °FClear.7 mph17%30.04 "Hg10 mi
7:00 AM79 °FClear.7 mph16%30.04 "Hg10 mi
6:30 AM75 °FPassing clouds.2 mph18%30.01 "HgN/A
5:30 AM77 °FClear.2 mph18%30.01 "Hg10 mi
4:30 AM79 °FPassing clouds.2 mph17%30.01 "HgN/A
3:30 AM79 °FClear.2 mph16%30.01 "Hg10 mi
2:30 AM82 °FClear.2 mph14%30.01 "Hg10 mi
1:30 AM82 °FPassing clouds.7 mph14%30.01 "HgN/A
12:30 AM84 °FPassing clouds.5 mph13%30.01 "HgN/A
12:00 AM84 °FClear.5 mph13%30.01 "Hg10 mi
11:30 PM
Aug 20
86 °FClear.7 mph12%30.01 "Hg10 mi
11:00 PM86 °FClear.7 mph12%30.01 "Hg10 mi
10:30 PM88 °FPassing clouds.2 mph12%30.01 "HgN/A
10:00 PM90 °FPassing clouds.2 mph12%30.01 "HgN/A
9:30 PM90 °FClear.5 mph12%30.01 "Hg10 mi
9:00 PM91 °FSunny.5 mph11%30.01 "Hg10 mi
8:30 PM93 °FPassing clouds.5 mph10%29.98 "HgN/A
8:00 PM93 °FPassing clouds.7 mph10%29.98 "HgN/A
7:30 PM97 °FPassing clouds.9 mph8%29.98 "HgN/A
7:00 PM99 °FPassing clouds.7 mph8%29.98 "HgN/A
6:30 PM99 °FPassing clouds.12 mph8%29.98 "HgN/A
6:00 PM100 °FPassing clouds.9 mph7%29.98 "HgN/A
5:30 PM100 °FPassing clouds.9 mph7%29.98 "HgN/A
4:20 PM100 °FPassing clouds.7 mph7%29.98 "HgN/A
3:30 PM100 °FPassing clouds.7 mph7%30.01 "HgN/A
2:30 PM100 °FPassing clouds.9 mph7%30.01 "HgN/A
1:30 PM99 °FPassing clouds.5 mph8%30.04 "HgN/A
Weather by CustomWeather, © 2014

See weather overviewHow to use our weather pages